sat.trackr.live / text

‹ back to catalog

STARLINK-32752

NORAD 62567 · 2025-006P

PAYLOAD ACTIVE UNKNOWN

§ Identity

Operator
Country
US
Launch date
2025-01-10
Launch site
AFETR
Launch vehicle
Mass (kg)
RCS (m²)

Purposes: comms

External: N2YO · Heavens-Above · Gunter

§ Orbital elements

Epoch: 2026-09-21T11:16:17.085216Z

Period
94.27 min
Inclination
43.0027°
Eccentricity
0.0001498
Mean motion
15.27593988 rev/d
Perigee alt
482.0 km
Apogee alt
484.0 km
Semi-major
6,861.1 km
B*
3.5421e-4
RAAN
267.0073°
Arg perigee
272.0793°
Mean anomaly
87.9887°
Rev number
9,480

§ Raw data

STARLINK-327521 62567U 25006P   26264.46964219  .00009502  00000+0  35421-3 0  99932 62567  43.0027 267.0073 0001498 272.0793  87.9887 15.27593988 94806

JSON: /api/v1/satellites/62567 · /tle

For live sub-satellite position, see the globe view (requires WebGL).

§ Visibility from observer

Set your observer location to see the next 7 days of passes ≥ 10°. The values pass through the URL so the page stays shareable.

No JS? Fill the form by hand. The geolocation button needs JavaScript.